This is the latest recevied weather packets stored in our database for station/object IZ1UQG-2. If no packets are shown the sender has not sent any weather packets the latest 10 day(s).
| Time | Temp. | Humidity | Pressure | Rain* | Wind** | Luminosity | Snow |
|---|---|---|---|---|---|---|---|
| 1777957264 | 12.22° C | 85% | 1011.9 hPa | 1.27 mm | - | 5 W/m² | - |
| 1777956364 | 12.22° C | 84% | 1011.8 hPa | 0.76 mm | - | 0 W/m² | - |
| 1777955823 | 12.22° C | 83% | 1011.8 hPa | 0.76 mm | - | 0 W/m² | - |
| 1777955530 | 12.22° C | 82% | 1011.8 hPa | 0.51 mm | - | 0 W/m² | - |
| 1777955224 | 12.22° C | 82% | 1011.6 hPa | 0.51 mm | - | 0 W/m² | - |
| 1777954144 | 12.78° C | 80% | 1011.5 hPa | 0.51 mm | - | 0 W/m² | - |
| 1777953843 | 12.78° C | 80% | 1011.5 hPa | 0.51 mm | - | 0 W/m² | - |
| 1777953784 | 12.78° C | 80% | 1011.6 hPa | 0.51 mm | - | 0 W/m² | - |
| 1777953732 | 12.78° C | 80% | 1011.5 hPa | 0.51 mm | - | 0 W/m² | - |
| 1777953605 | 12.78° C | 79% | 1011.5 hPa | 0.51 mm | - | 0 W/m² | - |
| 1777953364 | 12.78° C | 78% | 1011.4 hPa | 0.51 mm | - | 0 W/m² | - |
| 1777953244 | 12.78° C | 78% | 1011.3 hPa | 0.51 mm | - | 0 W/m² | - |
| 1777953064 | 13.33° C | 78% | 1011.4 hPa | 0.51 mm | - | 0 W/m² | - |
| 1777952344 | 13.33° C | 75% | 1011.2 hPa | 0.25 mm | - | 0 W/m² | - |
| 1777951564 | 13.33° C | 74% | 1011.2 hPa | 0.25 mm | - | 0 W/m² | - |
| 1777950964 | 13.89° C | 76% | 1011.2 hPa | 0 mm | - | 0 W/m² | - |
| 1777950723 | 13.89° C | 76% | 1011.2 hPa | 0 mm | - | 0 W/m² | - |
| 1777950544 | 13.89° C | 77% | 1011.3 hPa | 0 mm | - | 0 W/m² | - |
| 1777950305 | 13.89° C | 76% | 1011.3 hPa | 0 mm | - | 0 W/m² | - |
| 1777950124 | 14.44° C | 75% | 1011.2 hPa | 0 mm | - | 0 W/m² | - |
| 1777950063 | 14.44° C | 75% | 1011.2 hPa | 0 mm | - | 0 W/m² | - |
| 1777949885 | 14.44° C | 75% | 1011.1 hPa | 0 mm | - | 0 W/m² | - |
| 1777949643 | 14.44° C | 75% | 1011.1 hPa | 0 mm | - | 0 W/m² | - |
| 1777949464 | 14.44° C | 74% | 1011.1 hPa | 0 mm | - | 0 W/m² | - |
| 1777949404 | 14.44° C | 73% | 1011.2 hPa | 0 mm | - | 0 W/m² | - |
* Rain latest hour (hover to see other rain measurements)
** Current wind speed in m/s (hover to see current wind gust speed)